Overview Statistics Trail Chart Weather Telemetry Raw packets
 

This is the latest recevied weather packets stored in our database for station/object WX0ABE-13. If no packets are shown the sender has not sent any weather packets the latest 10 day(s).

<< 1 2 3 4 >>
Time Temp. Humidity Pressure Rain* Wind** Luminosity Snow
1788383249 34.44° C 28% 1013.7 hPa 0 mm - 518 W/m² -
1788382945 34.44° C 27% 1013.6 hPa 0 mm - 528 W/m² -
1788382643 33.89° C 29% 1013.8 hPa 0 mm - 536 W/m² -
1788382338 34.44° C 26% 1013.8 hPa 0 mm - 547 W/m² -
1788382033 34.44° C 26% 1013.8 hPa 0 mm - 556 W/m² -
1788381728 33.89° C 28% 1013.9 hPa 0 mm - 564 W/m² -
1788381424 33.33° C 29% 1014 hPa 0 mm - 572 W/m² -
1788381124 33.89° C 28% 1014.3 hPa 0 mm - 578 W/m² -
1788380818 33.89° C 27% 1014.1 hPa 0 mm - 585 W/m² -
1788380515 34.44° C 26% 1014.4 hPa 0 mm - 592 W/m² -
1788380212 33.89° C 25% 1014.5 hPa 0 mm - 600 W/m² -
1788379910 33.33° C 28% 1014.6 hPa 0 mm - 605 W/m² -
1788379605 33.89° C 28% 1014.5 hPa 0 mm - 611 W/m² -
1788379301 34.44° C 26% 1014.5 hPa 0 mm - 614 W/m² -
1788378997 34.44° C 26% 1014.4 hPa 0 mm - 618 W/m² -
1788378696 34.44° C 27% 1014.6 hPa 0 mm - 624 W/m² -
1788378395 33.89° C 26% 1014.5 hPa 0 mm - 629 W/m² -
1788378090 33.89° C 27% 1014.5 hPa 0 mm - 634 W/m² -
1788377786 34.44° C 27% 1014.6 hPa 0 mm - 639 W/m² -
1788377481 33.89° C 25% 1014.8 hPa 0 mm - 643 W/m² -
1788377179 33.33° C 30% 1014.8 hPa 0 mm - 647 W/m² -
1788376878 32.78° C 29% 1014.9 hPa 0 mm - 661 W/m² -
1788376574 33.33° C 26% 1014.9 hPa 0 mm - 687 W/m² -
1788376274 33.89° C 28% 1014.9 hPa 0 mm - 670 W/m² -
1788375969 33.89° C 25% 1015 hPa 0 mm - 688 W/m² -

* Rain latest hour (hover to see other rain measurements)
** Current wind speed in m/s (hover to see current wind gust speed)